Content
SEND FEEDBACK

Daily
Averages
Monthly
Summary
United States of America

INARAJAN, GUAM


Home > North America > United States > Guam
Elevation: 280 feet     Latitude: 13 18N     Longitude: 144 44E

WEATHER
 
SELECT A DAY
Number of Records: 341,524;   Date Range: 1/1/95 - 7/7/14
 
SHARE

PRINT THIS DATA

[ ← Previous Day ]
WEATHER ALMANAC - NOVEMBER 1, 2013
[ Next Day → ]
[ °C ]   °F
Weather ElementAverageHighLow
Temperature79.6 °F86 °F (11:48 am) (10:58 am)
Dewpoint75.4 °F78.8 °F (12:28 am) (7:00 pm)
Humidity87.2 %100 % (12:28 am)79 % (10:48 am)
Barometer29.89 in29.94 in (9:33 am)29.82 in (2:58 pm)
Wind Speed13.9 mph17.3 mph (9:33 am)
Wind Gust20.7 mph (2:18 pm)
Weather ElementAverage
Visibility10 mi
Wind DirectionENE (64.2 °)

Weather ElementTotal
Precipitation---
Heating Degree Days22 (Base 65)
Averaged from 78 records on November 1, 2013
WEATHER CONDITIONS BREAKOUT
WIND DIRECTION BREAKOUT
WEATHER BY HOUR - NOVEMBER 1, 2013
[ °C ]   °F
Local TimeTemperatureDewpointHumidityBarometerVisibilityWind DirectionWind SpeedGust SpeedPrecipitationEventsConditions
12:13 AM78.8 °F77.0 °F94 %29.91 in10.0 miEast (80°)16.1 mphMostly Cloudy
12:18 AM78.8 °F77.0 °F94 %29.91 in10.0 miEast (80°)11.5 mphScattered Clouds
12:23 AM80.6 °F77.0 °F89 %29.91 in10.0 miENE (70°)13.8 mphMostly Cloudy
12:28 AM78.8 °F78.8 °F100 %29.91 in10.0 miENE (60°)15.0 mphMostly Cloudy
12:38 AM78.8 °F77.0 °F94 %29.90 in10.0 miEast (80°)12.7 mphScattered Clouds
12:58 AM79.0 °F76.8 °F93 %29.87 in10.0 miEast (80°)12.7 mphPartly Cloudy
1:23 AM78.8 °F77.0 °F94 %29.89 in10.0 miEast (80°)12.7 mphMostly Cloudy
1:43 AM78.8 °F77.0 °F94 %29.89 in10.0 miENE (70°)13.8 mphMostly Cloudy
1:48 AM78.8 °F77.0 °F94 %29.89 in10.0 miEast (80°)15.0 mphMostly Cloudy
1:53 AM78.8 °F77.0 °F94 %29.89 in10.0 miEast (80°)13.8 mphMostly Cloudy
1:58 AM79.5 °F76.8 °F91 %29.86 in10.0 miEast (80°)12.7 mphMostly Cloudy
2:03 AM78.8 °F77.0 °F94 %29.89 in10.0 miENE (70°)12.7 mphMostly Cloudy
2:43 AM78.8 °F77.0 °F94 %29.88 in10.0 miEast (80°)11.5 mphScattered Clouds
2:58 AM79.2 °F76.8 °F92 %29.86 in10.0 miEast (80°)11.5 mphPartly Cloudy
3:28 AM78.8 °F77.0 °F94 %29.88 in10.0 miEast (80°)13.8 mphMostly Cloudy
3:33 AM78.8 °F77.0 °F94 %29.88 in10.0 miEast (80°)16.1 mphScattered Clouds
3:58 AM79.3 °F76.3 °F90 %29.86 in10.0 miEast (90°)13.8 mphPartly Cloudy
4:58 AM79.0 °F76.3 °F91 %29.86 in10.0 miEast (90°)12.7 mphClear
5:58 AM79.0 °F76.8 °F93 %29.86 in10.0 miEast (80°)13.8 mphScattered Clouds
6:18 AM78.8 °F77.0 °F94 %29.90 in10.0 miEast (80°)10.4 mphMostly Cloudy
6:28 AM78.8 °F77.0 °F94 %29.90 in10.0 miENE (70°)12.7 mphScattered Clouds
6:33 AM78.8 °F77.0 °F94 %29.90 in10.0 miENE (70°)16.1 mphMostly Cloudy
6:38 AM78.8 °F77.0 °F94 %29.90 in10.0 miEast (80°)12.7 mphScattered Clouds
6:58 AM79.3 °F76.8 °F92 %29.88 in10.0 miENE (70°)12.7 mphPartly Cloudy
7:58 AM81.5 °F78.4 °F90 %29.89 in10.0 miENE (70°)13.8 mphScattered Clouds
8:33 AM82.4 °F78.8 °F89 %29.93 in10.0 miEast (80°)16.1 mphMostly Cloudy
8:38 AM82.4 °F78.8 °F89 %29.93 in10.0 miEast (80°)15.0 mphScattered Clouds
8:47 AM82.4 °F78.8 °F89 %29.93 in10.0 miENE (60°)12.7 mphLight Drizzle
8:56 AM80.6 °F78.8 °F94 %29.93 in10.0 miENE (70°)16.1 mphMostly Cloudy
8:58 AM80.6 °F78.8 °F94 %29.91 in10.0 miEast (80°)15.0 mph0.00 inMostly Cloudy
9:33 AM84.2 °F78.8 °F84 %29.94 in10.0 miENE (70°)17.3 mphMostly Cloudy
9:38 AM82.4 °F78.8 °F89 %29.94 in10.0 miENE (70°)16.1 mphMostly Cloudy
9:53 AM84.2 °F78.8 °F84 %29.94 in10.0 miENE (70°)15.0 mphScattered Clouds
9:58 AM83.8 °F78.1 °F83 %29.91 in10.0 miEast (80°)16.1 mphScattered Clouds
10:48 AM84.2 °F77.0 °F79 %NorthMostly Cloudy
10:58 AM0.0 °F0.0 °FNorthMostly Cloudy
11:03 AM0.0 °F0.0 °FNorthMostly Cloudy
11:23 AM84.2 °F78.8 °F84 %29.91 in10.0 miENE (70°)12.7 mphMostly Cloudy
11:28 AM84.2 °F78.8 °F84 %29.91 in10.0 miEast (80°)13.8 mphMostly Cloudy
11:38 AM84.2 °F78.8 °F84 %29.91 in10.0 miENE (70°)12.7 mphScattered Clouds
11:48 AM86.0 °F78.8 °F79 %29.91 in10.0 miENE (70°)12.7 mphMostly Cloudy
11:53 AM86.0 °F78.8 °F79 %29.91 in10.0 miNE (50°)16.1 mphMostly Cloudy
11:58 AM85.6 °F78.4 °F79 %29.88 in10.0 miENE (60°)17.3 mphMostly Cloudy
12:28 PM84.2 °F77.0 °F79 %29.89 in10.0 miENE (70°)16.1 mphScattered Clouds
12:58 PM85.5 °F78.3 °F79 %29.86 in10.0 miENE (60°)12.7 mphPartly Cloudy
1:13 PM84.2 °F78.8 °F84 %29.87 in10.0 miENE (60°)12.7 mphMostly Cloudy
1:23 PM84.2 °F77.0 °F79 %29.87 in10.0 miENE (70°)12.7 mphMostly Cloudy
1:28 PM84.2 °F77.0 °F79 %29.87 in10.0 miENE (60°)13.8 mphMostly Cloudy
1:43 PM84.2 °F77.0 °F79 %29.87 in10.0 miENE (60°)13.8 mphMostly Cloudy
1:48 PM84.2 °F77.0 °F79 %29.86 in10.0 miENE (60°)13.8 mphScattered Clouds
1:58 PM84.2 °F77.0 °F79 %29.83 in10.0 miNE (50°)16.1 mphScattered Clouds
2:03 PM84.2 °F77.0 °F79 %29.86 in10.0 miENE (60°)15.0 mphMostly Cloudy
2:08 PM84.2 °F77.0 °F79 %29.86 in10.0 miNE (50°)12.7 mphScattered Clouds
2:18 PM84.2 °F77.0 °F79 %29.86 in10.0 miENE (60°)17.3 mph20.7 mphMostly Cloudy
2:23 PM84.2 °F78.8 °F84 %29.86 in10.0 miNE (50°)13.8 mphScattered Clouds
2:58 PM84.2 °F77.9 °F81 %29.82 in10.0 miNE (50°)13.8 mphPartly Cloudy
3:13 PM84.2 °F77.0 °F79 %29.85 in10.0 miNE (50°)13.8 mphMostly Cloudy
3:18 PM84.2 °F77.0 °F79 %29.85 in10.0 miENE (60°)13.8 mphMostly Cloudy
3:23 PM84.2 °F77.0 °F79 %29.85 in10.0 miENE (60°)15.0 mphMostly Cloudy
3:33 PM84.2 °F77.0 °F79 %29.85 in10.0 miENE (60°)13.8 mphMostly Cloudy
3:38 PM84.2 °F77.0 °F79 %29.85 in10.0 miNE (50°)16.1 mphScattered Clouds
3:58 PM83.7 °F77.2 °F81 %29.83 in10.0 miENE (60°)15.0 mphScattered Clouds
4:58 PM82.2 °F76.6 °F83 %29.83 in10.0 miENE (60°)13.8 mphScattered Clouds
5:03 PM82.4 °F77.0 °F84 %29.86 in10.0 miENE (60°)12.7 mphMostly Cloudy
5:08 PM82.4 °F77.0 °F84 %29.86 in10.0 miENE (60°)11.5 mphScattered Clouds
5:58 PM81.0 °F77.5 °F89 %29.84 in10.0 miENE (60°)11.5 mphScattered Clouds
6:03 PM80.6 °F77.0 °F89 %29.87 in10.0 miNE (50°)15.0 mphMostly Cloudy
6:13 PM80.6 °F77.0 °F89 %29.88 in10.0 miENE (60°)12.7 mphScattered Clouds
6:58 PM80.8 °F76.3 °F86 %29.86 in10.0 miENE (60°)13.8 mphPartly Cloudy
7:58 PM80.8 °F76.8 °F88 %29.88 in10.0 miNE (50°)13.8 mphScattered Clouds
8:22 PM80.6 °F77.0 °F89 %29.92 in10.0 miENE (70°)16.1 mphRainLight Rain
8:32 PM78.8 °F77.0 °F94 %29.92 in10.0 miNE (40°)12.7 mphPartly Cloudy
8:58 PM79.7 °F77.5 °F93 %29.91 in10.0 miENE (60°)16.1 mph0.00 inScattered Clouds
9:25 PM80.6 °F77.0 °F89 %29.93 in10.0 miENE (60°)13.8 mphRainLight Rain
9:35 PM80.6 °F77.0 °F89 %29.93 in10.0 miENE (60°)13.8 mphPartly Cloudy
9:58 PM79.9 °F77.0 °F91 %29.91 in10.0 miENE (60°)13.8 mph0.00 inPartly Cloudy
10:58 PM79.5 °F77.0 °F92 %29.92 in10.0 miENE (60°)11.5 mphPartly Cloudy
11:58 PM79.7 °F77.2 °F92 %29.87 in10.0 miNE (50°)12.7 mphScattered Clouds
Hourly data recorded from PGUA, located miles away from Inarajan, Guam







STORIES FROM OUR PARTNERS